星链-6176 (STARLINK-6176 )

导读

STARLINK-6176是美国SpaceX星链星座中的一颗低轨通信卫星,于2023年5月4日发射升空。它运行在近地轨道,属于星链第二代卫星组网的组成部分,核心任务是为全球提供高速低延迟的卫星互联网服务,尤其覆盖偏远及基础设施薄弱地区。作为星链大规模星座部署中的一员,它进一步拓展了星链网络的覆盖范围与通信容量,同时星链系统也兼顾民用通信与部分特种应用需求,是美国低轨卫星通信网络建设的重要节点。

Basic Information
目录编号:
56388
目录名称:
STARLINK-6176
国际标识:
2023-061Q
轨道中心:
EARTH
卫星名称:
星链-6176
卫星全名:
星链-6176 (STARLINK-6176 )
卫星状态:
在轨 (已飞行1219 天)
发射日期:
2023-05-04 UTC
国别 :
美国 (US)
星等 :
--
Orbit Information
数据来源 国际轨道数据
星历时间: 2026-09-03T20:44:35+0800
19小时前
查看轨道信息
半长轴: 6861.187km
偏心率: 0.0001261
轨道倾角: 43.003°
近地点辐角 275.313°
升交点赤经 273.920°
平近点角 84.757°
近地点: 482.184km
远地点: 483.916km
周期: 94.267分钟
每日圈数: 15.275799
Detailed Information
固有亮度:
5
最大亮度:
2.5
卫星平台:
Starlink v1.5
覆盖范围:
全球
运营商:
太空探索技术公司
运营商所在国:
美国
制造商(研发单位):
太空探索技术公司
制造商所在国:
美国
使用方式:
暂无
Satellite Introduction
星链(Starlink)计划是由太空探索技术公司(SpaceX)提出的一个巨型低轨卫星互联网星座项目,计划在2019年至2024年间在太空搭建由约1.2万颗卫星组成的“星链”网络,其中1584颗将部署在地球上空550千米处的近地轨道,并从2020年开始工作。该卫星仍在工作。
2D Orbit Map
3D Orbit Map
Orbit Altitude Analysis Chart
Orbit Inclination Analysis Chart
Orbit Comprehensive Analysis Chart
View Comprehensive Chart
Conjunction Data List
Event ID Objects TCA Miss Dist (km) Collision Risk Probability Collision Risk Index (CRI) Action
CDM_260904-230005-638806-643021
2026-09-04T
23:00:14+0000
0.179 km
中距离
6.784233E-4 高风险 0.92
CDM_260905-073605-638806-204521
2026-09-05T
07:36:06+0000
0.626 km
远距离
5.850467E-5 中风险 0.7
CDM_260905-091205-638806-643021
2026-09-05T
09:12:13+0000
0.807 km
远距离
3.100656E-5 中风险 0.65
CDM_260905-072605-638806-162321
2026-09-05T
07:26:23+0000
1.610 km
极远距离
2.133297E-6 低风险 0.42
CDM_260905-112105-638806-162321
2026-09-05T
11:21:46+0000
1.643 km
极远距离
2.009498E-6 低风险 0.41
CDM_260905-055205-638806-162321
2026-09-05T
05:52:14+0000
1.750 km
极远距离
1.6866E-6 低风险 0.4
CDM_260904-072302-565505-638822
SL-3 DEB (25655)
2026-09-04T
07:23:03+0000
2.223 km
极远距离
1.544382E-6 低风险 0.39
CDM_260905-073805-638806-643021
2026-09-05T
07:38:04+0000
2.092 km
极远距离
1.52893E-6 低风险 0.39
CDM_260905-003405-638806-643021
2026-09-05T
00:34:23+0000
2.111 km
极远距离
1.497164E-6 低风险 0.39
CDM_260905-060105-638806-204521
2026-09-05T
06:01:57+0000
1.989 km
极远距离
1.494375E-6 低风险 0.38